Weather History for Baker, MT

Change the Weather History Date:

Wednesday, February 20, 2013

  Actual Average Record
Temperature  
Mean Temperature 16 °F -  
Max Temperature 27 °F 6 °F 50 °F (1998)
Min Temperature 5 °F -4 °F -4 °F (2001)
Degree Days  
Heating Degree Days 49    
Moisture  
Dew Point 3 °F    
Average Humidity 62    
Maximum Humidity 73    
Minimum Humidity 45    
Precipitation  
Precipitation 0.00 in - - ()
Sea Level Pressure  
Sea Level Pressure 30.02 in    
Wind  
Wind Speed 19 mph (SE)    
Max Wind Speed 26 mph    
Max Gust Speed 36 mph    
Visibility 10 miles    
Events      
Averages and records for this station are not official NWS values.
T = Trace of Precipitation, MM = Missing Value Source: NWS Daily Summary

Daily Weather History Graph

Daily Weather History Graph

Search for Another Location

Airport:

Trip Planner

Search our weather history database for the weather conditions in past years. The results will help you decide how hot, cold, wet, or windy it might be!

Date:

Astronomy

Feb. 20, 2013 Rise Set
Actual Time 6:51 AM MST 5:30 PM MST
Civil Twilight 6:20 AM MST 6:01 PM MST
Nautical Twilight 5:46 AM MST 6:36 PM MST
Astronomical Twilight 5:11 AM MST 7:11 PM MST
Moon 12:43 PM MST 3:24 AM MST
Length of Visible Light 11h 40m
Length of Day
10h 39m
Waxing Gibbous, 76% of the Moon is Illuminated
Feb 20
Waxing Gibbous
Feb 25
Full
Mar 4
Last Quarter
Mar 11
New
Mar 19
First Quarter

Hourly Weather History & Observations

Time (MST) Temp. Windchill Dew Point Humidity Pressure Visibility Wind Dir Wind Speed Gust Speed Precip Events Conditions
12:51 AM 8.1 °F -13.8 °F -2.0 °F 64% 30.06 in 10.0 mi ESE 26.5 mph 35.7 mph N/A   Clear
1:51 AM 8.1 °F -13.0 °F -2.9 °F 61% 30.06 in 10.0 mi ESE 24.2 mph 31.1 mph N/A   Clear
2:51 AM 7.0 °F -14.5 °F -2.9 °F 64% 30.04 in 10.0 mi ESE 24.2 mph - N/A   Clear
3:51 AM 7.0 °F -11.6 °F -2.0 °F 67% 30.03 in 10.0 mi ESE 17.3 mph - N/A   Clear
4:51 AM 7.0 °F -11.6 °F -2.0 °F 67% 30.03 in 10.0 mi ESE 17.3 mph 26.5 mph N/A   Clear
5:51 AM 5.0 °F -14.2 °F -2.9 °F 70% 30.04 in 10.0 mi ESE 17.3 mph - N/A   Clear
6:51 AM 5.0 °F -12.3 °F -2.9 °F 70% 30.05 in 10.0 mi ESE 13.8 mph - N/A   Clear
7:51 AM 7.0 °F -11.0 °F -0.9 °F 70% 30.05 in 10.0 mi ESE 16.1 mph - N/A   Clear
8:51 AM 8.1 °F -12.2 °F -0.9 °F 67% 30.05 in 10.0 mi SE 21.9 mph 29.9 mph N/A   Clear
9:51 AM 10.9 °F -8.8 °F 1.0 °F 64% 30.04 in 10.0 mi SE 23.0 mph 29.9 mph N/A   Clear
10:51 AM 14.0 °F -4.3 °F 3.0 °F 62% 30.03 in 10.0 mi SE 21.9 mph - N/A   Clear
11:51 AM 19.0 °F 2.7 °F 6.1 °F 57% 30.02 in 10.0 mi SE 20.7 mph - N/A   Clear
12:51 PM 21.9 °F 6.5 °F 7.0 °F 53% 30.00 in 10.0 mi SE 20.7 mph - N/A   Clear
1:51 PM 24.1 °F 11.0 °F 8.1 °F 51% 29.98 in 10.0 mi SSE 16.1 mph - N/A   Clear
2:51 PM 25.0 °F 13.1 °F 7.0 °F 46% 29.98 in 10.0 mi SE 13.8 mph - N/A   Clear
3:51 PM 27.0 °F 16.1 °F 8.1 °F 45% 29.97 in 10.0 mi SE 12.7 mph - N/A   Clear
4:51 PM 27.0 °F 17.3 °F 9.0 °F 47% 29.96 in 10.0 mi ESE 10.4 mph - N/A   Clear
5:51 PM 19.0 °F 11.1 °F 9.0 °F 65% 29.99 in 10.0 mi SSE 5.8 mph - N/A   Clear
6:51 PM 18.0 °F 8.7 °F 8.1 °F 65% 30.01 in 10.0 mi ESE 6.9 mph - N/A   Clear
8:51 PM 16.0 °F 2.3 °F 5.0 °F 62% 30.03 in 10.0 mi SE 12.7 mph - N/A   Clear
9:51 PM 15.1 °F 3.3 °F 6.1 °F 68% 30.04 in 10.0 mi SE 9.2 mph - N/A   Clear
10:51 PM 14.0 °F 6.5 °F 6.1 °F 71% 30.05 in 10.0 mi ESE 4.6 mph - N/A   Clear
11:51 PM 10.9 °F 0.2 °F 3.9 °F 73% 30.05 in 10.0 mi ESE 6.9 mph - N/A   Clear